Dewpoint
25 25 23 21 20 20 19 18 19 20 20 20 21 24 28 30 29 31 34 32 32 35
21 22 23 22 20 20 20 18 18 19 19 19 20 21 24 27 27 28 30 30 31 32
21 22 22 23 20 19 19 16 19 18 17 17 17 18 22 24 24 25 28 28 27 28
22 22 22 21 21 20 20 19 18 17 16 15 15 15 18 20 21 22 24 26 27 25
22 22 22 21 21 21 18 20 18 16 15 14 14 14 14 16 18 20 21 22 24 23
23 21 21 21 20 20 19 18 18 17 16 14 15 13 14 13 15 17 19 21 21 20
28 24 21 20 20 21 20 19 18 17 16 17 14 14 13 14 15 17 19 22 22 20
30 28 24 22 21 21 21 19 18 18 17 16 15 12 14 14 17 18 19 23 21 21
30 29 26 24 22 21 21 20 19 18 17 17 12 18 19 17 17 19 20 20 19 20
28 29 28 25 22 21 21 20 19 17 17 16 16 20 22 23 19 20 21 22 21 19
27 28 28 27 24 22 21 21 19 18 17 16 15 21 23 25 22 20 21 22 21 20
27 27 27 27 27 24 22 21 21 18 17 16 16 21 23 23 21 19 19 19 19 18
28 27 26 27 27 27 25 21 20 19 18 19 16 20 23 23 19 18 18 17 16 19
27 26 26 27 28 28 26 23 21 20 18 16 17 15 22 25 20 17 16 15 14 15
Lifted_Index
17 17 17 17 17 17 18 18 18 18 18 19 19 19 19 19 19 19 19 19 19 19
16 17 17 17 17 17 18 18 18 18 18 18 18 18 18 18 18 19 19 19 19 19
16 16 16 17 17 17 17 18 18 18 18 18 18 18 18 18 18 18 19 19 19 19
15 15 16 16 16 16 17 17 17 18 18 17 17 17 17 17 18 18 18 19 19 19
14 14 14 15 15 16 16 16 17 17 17 17 17 17 17 17 17 17 17 18 18 18
14 14 14 14 15 15 15 16 16 16 16 16 16 17 17 17 17 17 17 17 18 18
13 13 14 14 15 15 15 15 15 15 15 16 16 16 17 17 17 17 17 17 17 17
13 13 14 14 15 15 15 15 15 15 15 15 15 16 16 16 16 16 17 17 17 17
13 13 13 14 15 15 15 15 15 15 15 15 15 15 16 16 16 16 16 16 17 17
12 11 12 13 14 14 15 15 15 15 15 15 15 15 16 16 16 16 16 16 16 16
10 10 11 12 13 13 14 14 14 15 15 15 15 15 16 16 16 16 16 16 16 16
9 9 10 11 11 12 13 14 14 14 14 14 15 16 16 16 16 16 16 16 16 17
9 9 9 10 10 11 12 13 13 14 14 14 15 16 16 17 16 16 16 16 17 17
9 9 9 10 10 11 12 12 13 13 13 14 15 16 17 17 16 16 16 16 17 17